Terminal Aerodrome Forecast
Issued by NWS

Home | Current Version | Previous Version | Text Only | Print | Product List | Glossary On
Versions: 1 2 3 4 5 6 7 8 9 10 11 12
603
FTUS44 KMAF 261720
TAFINK
TAF
KINK 261720Z 2618/2718 19008KT P6SM SCT060
     FM270200 15009KT P6SM BKN200
     FM271600 17010G20KT P6SM SCT090 SCT250=

USA.gov is the U.S. government's official web portal to all federal, state and local government web resources and services.